K5AJS Weather Reports


time (UTC)temp
F
wind
direction
speed
knots
gust
knots
rain 1hr
in
rain 24hr
in
rain mn
in
humidity
%
barometer
mb
20260510104649 74 0 0.0 0.0 0.00 0.00 0.00 97 1011.2
20260510104150 74 0 0.0 0.0 0.00 0.00 0.00 97 1011.1
20260510103649 74 91 0.0 0.9 0.00 0.00 0.00 97 1011.1
20260510103150 74 95 0.0 0.0 0.00 0.00 0.00 96 1011.0
20260510102649 74 0 0.0 0.0 0.00 0.00 0.00 96 1011.1
20260510102150 74 331 0.0 0.0 0.00 0.00 0.00 96 1011.1
20260510101649 74 302 0.0 0.0 0.00 0.00 0.00 96 1011.0
20260510101150 74 45 1.7 2.6 0.00 0.00 0.00 96 1011.0
20260510100650 74 126 0.0 0.0 0.00 0.00 0.00 96 1011.0
20260510100150 74 23 0.9 1.7 0.00 0.00 0.00 96 1010.9
20260510095649 74 96 0.0 0.0 0.00 0.00 0.00 96 1010.9
20260510095150 74 108 0.0 0.9 0.00 0.00 0.00 96 1010.9
20260510094650 74 0 0.0 0.0 0.00 0.00 0.00 96 1011.0
20260510094149 74 0 0.0 0.0 0.00 0.00 0.00 96 1011.0
20260510093649 74 0 0.0 0.0 0.00 0.00 0.00 96 1011.1
20260510093150 74 0 0.0 0.0 0.00 0.00 0.00 96 1011.2
20260510092650 74 166 0.0 1.7 0.00 0.00 0.00 96 1011.2
20260510092150 73 141 0.0 0.9 0.00 0.00 0.00 96 1011.3
20260510091649 73 95 0.9 1.7 0.00 0.00 0.00 96 1011.3
20260510091157 73 0 0.0 0.0 0.00 0.00 0.00 96 1011.4
20260510090651 73 269 0.0 0.0 0.00 0.00 0.00 96 1011.4
20260510090149 73 0 0.0 0.0 0.00 0.00 0.00 96 1011.3
20260510085656 73 0 0.0 0.0 0.00 0.00 0.00 96 1011.3
20260510085149 73 0 0.0 0.0 0.00 0.00 0.00 96 1011.3
20260510084649 73 0 0.0 0.0 0.00 0.00 0.00 96 1011.3
20260510084150 73 0 0.0 0.0 0.00 0.00 0.00 96 1011.3
20260510083651 73 0 0.0 0.0 0.00 0.00 0.00 96 1011.2
20260510083149 73 0 0.0 0.0 0.00 0.00 0.00 96 1011.2
20260510082649 73 0 0.0 0.0 0.00 0.00 0.00 95 1011.1
20260510082149 73 0 0.0 0.0 0.00 0.00 0.00 95 1011.0
20260510081649 73 0 0.0 0.0 0.00 0.00 0.00 95 1011.1
20260510081150 73 0 0.0 0.0 0.00 0.00 0.00 95 1011.0
20260510080649 73 75 0.0 0.9 0.00 0.00 0.00 95 1010.9
20260510080151 73 0 0.0 0.0 0.00 0.00 0.00 95 1010.8
20260510075650 73 99 1.7 1.7 0.00 0.00 0.00 95 1010.8
20260510075150 73 0 0.0 0.0 0.00 0.00 0.00 95 1010.8
20260510074649 73 167 0.0 0.9 0.00 0.00 0.00 95 1010.8
20260510074149 73 91 0.9 1.7 0.00 0.00 0.00 95 1010.8
20260510073649 73 88 0.0 0.0 0.00 0.00 0.00 95 1010.8
20260510073149 73 111 0.0 0.9 0.00 0.00 0.00 95 1010.8
20260510072649 73 94 0.0 0.0 0.00 0.00 0.00 95 1010.8
20260510072149 73 96 1.7 1.7 0.00 0.00 0.00 95 1010.8
20260510071649 73 152 0.0 0.0 0.00 0.00 0.00 94 1010.7
20260510071150 73 87 0.0 0.9 0.00 0.00 0.00 94 1010.7
20260510070649 74 117 0.0 0.9 0.00 0.00 0.00 94 1010.9
20260510070149 74 291 0.0 0.0 0.00 0.00 0.00 94 1011.0
20260510065651 74 72 0.9 0.9 0.00 0.00 0.00 94 1011.0
20260510065149 74 106 0.0 1.7 0.00 0.00 0.00 94 1011.0
20260510064650 74 108 0.9 1.7 0.00 0.00 0.00 94 1011.1
20260510064149 74 0 0.0 0.0 0.00 0.00 0.00 93 1011.2
20260510063649 74 105 0.0 0.9 0.00 0.00 0.00 93 1011.1
20260510063150 74 104 1.7 1.7 0.00 0.00 0.00 93 1011.2
20260510062649 74 98 1.7 2.6 0.00 0.00 0.00 93 1011.2
20260510062149 74 102 0.9 2.6 0.00 0.00 0.00 93 1011.2
20260510061649 74 136 0.0 0.9 0.00 0.00 0.00 93 1011.2
20260510061149 74 92 0.0 0.0 0.00 0.00 0.00 93 1011.3
20260510060649 74 0 0.0 0.0 0.00 0.00 0.00 92 1011.3
20260510060149 74 113 0.9 1.7 0.00 0.00 0.00 92 1011.3
20260510055649 74 120 0.0 0.0 0.00 0.00 0.00 92 1011.3
20260510055149 74 130 0.9 1.7 0.00 0.00 0.00 92 1011.3
20260510054649 74 109 0.9 1.7 0.00 0.00 0.00 92 1011.3
20260510054149 74 111 0.0 0.0 0.00 0.00 0.00 91 1011.3
20260510053649 74 84 0.0 0.9 0.00 0.00 0.00 90 1011.4
20260510053149 74 93 0.0 1.7 0.00 0.00 0.00 90 1011.5
20260510052649 75 104 1.7 1.7 0.00 0.00 0.00 90 1011.6
20260510052149 75 110 1.7 2.6 0.00 0.00 0.00 89 1011.6
20260510051649 75 85 0.9 1.7 0.00 0.00 0.00 88 1011.6
20260510051149 75 109 1.7 1.7 0.00 0.00 0.00 88 1011.7
20260510050650 75 109 0.9 1.7 0.00 0.00 0.00 87 1011.7
20260510050149 75 103 0.9 1.7 0.00 0.00 0.00 86 1011.7
20260510045649 75 101 0.9 1.7 0.00 0.00 0.07 86 1011.7
20260510045149 75 106 0.9 2.6 0.00 0.00 0.07 85 1011.7
20260510044650 75 107 1.7 2.6 0.00 0.00 0.07 85 1011.6
20260510044149 75 0 0.0 0.0 0.00 0.00 0.07 85 1011.5
20260510043649 75 109 0.0 0.0 0.00 0.00 0.07 84 1011.5
20260510043149 75 0 0.0 0.0 0.00 0.00 0.07 84 1011.6
20260510042649 75 118 0.9 1.7 0.00 0.00 0.07 84 1011.7
20260510042149 75 106 0.9 2.6 0.00 0.00 0.07 83 1011.6
20260510041656 75 99 0.0 0.9 0.00 0.00 0.07 83 1011.5
20260510041149 75 122 0.9 1.7 0.00 0.00 0.07 82 1011.6
20260510040649 75 117 0.9 1.7 0.00 0.00 0.07 81 1011.6
20260510040150 75 112 0.0 1.7 0.00 0.00 0.07 80 1011.7
20260510035649 75 92 0.0 0.9 0.00 0.00 0.07 79 1011.8
20260510035150 75 142 0.9 1.7 0.00 0.00 0.07 79 1011.8
20260510034650 75 113 1.7 2.6 0.00 0.00 0.07 79 1011.8
20260510034150 75 83 0.9 1.7 0.00 0.00 0.07 80 1011.7
20260510033649 75 112 0.9 3.5 0.00 0.00 0.07 81 1011.6
20260510033149 75 107 0.9 1.7 0.00 0.00 0.07 82 1011.6
20260510032649 74 89 0.9 2.6 0.00 0.00 0.07 86 1011.5
20260510032149 74 96 0.9 1.7 0.00 0.00 0.07 87 1011.4
20260510031649 74 149 0.0 0.0 0.00 0.00 0.07 88 1011.2
20260510031150 74 147 0.0 1.7 0.00 0.00 0.07 89 1011.2
20260510030649 73 90 0.0 1.7 0.00 0.00 0.07 90 1011.0
20260510030149 73 0 0.0 0.0 0.00 0.00 0.07 91 1010.7
20260510025649 73 87 0.9 3.5 0.00 0.00 0.07 91 1010.7
20260510025151 73 0 0.0 0.0 0.00 0.00 0.07 91 1010.7
20260510024649 73 79 0.0 1.7 0.00 0.00 0.07 92 1010.5
20260510024149 73 101 0.0 0.9 0.00 0.00 0.07 92 1010.4
20260510023651 74 0 0.0 0.0 0.00 0.00 0.07 92 1010.3
20260510023149 74 0 0.0 0.0 0.00 0.00 0.07 92 1010.2
20260510022649 74 0 0.0 0.0 0.00 0.00 0.07 92 1010.2
20260510022149 74 0 0.0 0.0 0.00 0.00 0.07 92 1010.0
20260510021649 74 146 0.0 0.9 0.03 0.00 0.07 91 1010.0
20260510021149 74 0 0.0 0.0 0.07 0.00 0.07 91 1009.9
20260510020649 74 123 0.0 1.7 0.07 0.00 0.07 91 1009.8
20260510020149 74 0 0.0 0.0 0.07 0.00 0.08 90 1009.7
20260510015649 74 250 0.0 0.9 0.07 0.00 0.08 89 1009.5
20260510015149 74 176 0.0 0.0 0.07 0.00 0.08 89 1009.5
20260510014649 74 110 0.9 1.7 0.07 0.00 0.08 90 1009.4
20260510014149 74 114 0.9 1.7 0.07 0.00 0.08 89 1009.3
20260510013649 74 86 0.0 0.9 0.08 0.00 0.08 89 1009.1
20260510013149 75 256 0.0 0.9 0.08 0.00 0.08 88 1008.9
20260510012649 75 0 0.0 0.0 0.08 0.00 0.08 86 1008.6
20260510012149 75 0 0.0 0.0 0.05 0.00 0.08 84 1008.5
20260510011649 76 9 0.0 0.9 0.05 0.00 0.08 84 1008.6
20260510011149 76 105 0.0 0.9 0.05 0.00 0.07 82 1008.7
20260510010649 76 245 0.0 0.9 0.05 0.00 0.05 80 1008.7
20260510010149 77 320 0.0 0.9 0.01 0.00 0.03 77 1009.0
20260510005652 77 272 0.9 1.7 0.01 0.00 0.01 74 1009.2
20260510005149 78 250 0.0 0.9 0.01 0.00 0.01 71 1008.9
20260510004649 79 354 0.9 0.9 0.01 0.00 0.01 70 1008.9
20260510004149 79 333 0.0 0.9 0.00 0.00 0.00 67 1008.7
20260510003649 79 27 0.0 0.9 0.00 0.00 0.00 65 1008.6
20260510003150 80 12 1.7 3.5 0.00 0.00 0.00 62 1009.0
20260510002649 81 36 1.7 4.3 0.00 0.00 0.00 61 1009.1
20260510002149 82 50 1.7 4.3 0.00 0.00 0.00 59 1008.7
20260510001650 84 30 2.6 5.2 0.00 0.00 0.00 61 1008.7
20260510001149 86 31 1.7 4.3 0.00 0.00 0.00 61 1008.5
20260510000650 87 58 2.6 6.1 0.00 0.00 0.00 60 1008.5
20260510000150 88 7 0.0 1.7 0.00 0.00 0.00 59 1008.1
20260509235650 89 94 0.9 2.6 0.00 0.00 0.00 58 1008.0
20260509235149 89 82 0.0 1.7 0.00 0.00 0.00 58 1007.8
20260509234649 89 331 0.0 0.9 0.00 0.00 0.00 59 1007.9
20260509234150 90 324 0.9 2.6 0.00 0.00 0.00 58 1008.0
20260509233649 90 297 0.0 0.9 0.00 0.00 0.00 60 1007.9
20260509233150 91 330 0.0 0.9 0.00 0.00 0.00 58 1007.9
20260509232649 91 285 0.0 1.7 0.00 0.00 0.00 59 1008.0
20260509232149 91 92 0.9 1.7 0.00 0.00 0.00 58 1007.9
20260509231650 91 104 0.0 1.7 0.00 0.00 0.00 58 1007.9
20260509231149 91 119 0.0 0.0 0.00 0.00 0.00 56 1008.0
20260509230650 91 0 0.0 0.0 0.00 0.00 0.00 56 1008.0
20260509230150 91 145 0.0 0.0 0.00 0.00 0.00 55 1008.0
20260509225650 92 295 0.0 0.9 0.00 0.00 0.00 55 1007.9
20260509225149 92 0 0.0 0.0 0.00 0.00 0.00 53 1007.9
20260509224649 92 90 0.0 1.7 0.00 0.00 0.00 54 1007.8
20260509224149 93 15 0.9 1.7 0.00 0.00 0.00 53 1007.7
20260509223650 94 121 1.7 2.6 0.00 0.00 0.00 51 1007.7
20260509223149 93 324 0.0 0.9 0.00 0.00 0.00 57 1007.7
20260509222649 92 321 0.0 0.9 0.00 0.00 0.00 56 1007.7
20260509222149 92 308 0.0 1.7 0.00 0.00 0.00 58 1007.6
20260509221649 92 97 1.7 2.6 0.00 0.00 0.00 55 1007.6
20260509221149 92 36 0.9 1.7 0.00 0.00 0.00 56 1007.7
20260509220649 92 120 1.7 2.6 0.00 0.00 0.00 56 1007.7
20260509220151 93 0 0.0 0.0 0.00 0.00 0.00 57 1007.7
20260509215649 93 5 0.0 0.0 0.00 0.00 0.00 59 1007.7
20260509215149 93 106 0.0 0.0 0.00 0.00 0.00 58 1007.7
20260509214649 94 4 0.9 2.6 0.00 0.00 0.00 59 1007.7
20260509214149 94 15 0.9 3.5 0.00 0.00 0.00 58 1007.7
20260509213649 94 123 0.0 1.7 0.00 0.00 0.00 56 1007.7
20260509213149 94 263 0.0 1.7 0.00 0.00 0.00 58 1007.7
20260509212649 94 353 1.7 2.6 0.00 0.00 0.00 58 1007.7
20260509212149 93 57 0.0 0.9 0.00 0.00 0.00 60 1007.7
20260509211650 92 298 0.0 0.9 0.00 0.00 0.00 61 1007.8
20260509211152 92 251 0.0 0.9 0.00 0.00 0.00 60 1007.8
20260509210650 92 346 0.0 0.0 0.00 0.00 0.00 62 1007.9
20260509210150 92 338 0.9 1.7 0.00 0.00 0.00 59 1007.9
20260509205649 92 34 0.9 2.6 0.00 0.00 0.00 60 1008.0
20260509205149 92 97 0.0 0.9 0.00 0.00 0.00 61 1008.0
20260509204649 92 356 0.9 1.7 0.00 0.00 0.00 59 1008.1
20260509204150 92 46 0.9 1.7 0.00 0.00 0.00 60 1008.2
20260509203649 92 102 0.0 0.9 0.00 0.00 0.00 58 1008.3
20260509203149 92 314 0.0 0.0 0.00 0.00 0.00 60 1008.3
20260509202650 92 304 0.9 2.6 0.00 0.00 0.00 57 1008.3
20260509202149 91 4 0.9 1.7 0.00 0.00 0.00 60 1008.5
20260509201650 92 78 0.0 1.7 0.00 0.00 0.00 58 1008.5
20260509201151 92 0 0.9 3.5 0.00 0.00 0.00 58 1008.5
20260509200649 92 316 0.0 0.0 0.00 0.00 0.00 55 1008.6
20260509200149 91 356 0.0 0.0 0.00 0.00 0.00 54 1008.6
20260509195649 90 354 0.0 1.7 0.00 0.00 0.00 56 1008.6
20260509195149 90 267 0.0 0.0 0.00 0.00 0.00 59 1008.7
20260509194649 90 0 0.0 0.0 0.00 0.00 0.00 56 1008.8
20260509194149 89 73 0.9 1.7 0.00 0.00 0.00 57 1008.8
20260509193649 88 354 0.9 0.9 0.00 0.00 0.00 63 1008.8
20260509193149 88 295 0.0 0.0 0.00 0.00 0.00 60 1008.9
20260509192649 87 333 0.0 0.9 0.00 0.00 0.00 63 1008.9
20260509192149 88 248 1.7 1.7 0.00 0.00 0.00 59 1008.9
20260509191649 89 128 0.9 1.7 0.00 0.00 0.00 56 1009.0
20260509191149 89 279 0.9 0.9 0.00 0.00 0.00 59 1009.0
20260509190649 88 274 1.7 1.7 0.00 0.00 0.00 61 1009.0
20260509190149 88 256 0.0 0.9 0.00 0.00 0.00 60 1009.0
20260509185649 88 295 0.0 0.0 0.00 0.00 0.00 60 1009.0
20260509185150 88 265 0.9 1.7 0.00 0.00 0.00 60 1009.0
20260509184649 87 88 0.0 0.9 0.00 0.00 0.00 59 1009.0
20260509184150 87 37 1.7 2.6 0.00 0.00 0.00 64 1009.0
20260509183649 86 125 0.0 0.9 0.00 0.00 0.00 58 1009.0
20260509183150 86 279 0.9 0.9 0.00 0.00 0.00 61 1009.2
20260509182649 86 325 0.0 0.9 0.00 0.00 0.00 61 1009.3
20260509182150 86 197 0.0 0.9 0.00 0.00 0.00 63 1009.4
20260509181649 86 0 0.0 0.0 0.00 0.00 0.00 61 1009.6
20260509181150 85 251 0.0 0.9 0.00 0.00 0.00 66 1009.7
20260509180649 85 14 0.0 0.9 0.00 0.00 0.00 66 1009.7
20260509180149 84 337 0.9 1.7 0.00 0.00 0.00 65 1009.6
20260509175649 85 287 1.7 1.7 0.00 0.00 0.00 63 1009.6
20260509175150 85 105 0.0 1.7 0.00 0.00 0.00 63 1009.9
20260509174649 85 276 1.7 1.7 0.00 0.00 0.00 63 1010.1
20260509174149 85 124 0.0 0.9 0.00 0.00 0.00 62 1010.2
20260509173649 85 83 0.0 0.0 0.00 0.00 0.00 64 1010.3
20260509173149 84 107 1.7 1.7 0.00 0.00 0.00 63 1010.4
20260509172650 84 72 0.0 0.9 0.00 0.00 0.00 67 1010.4
20260509172149 84 273 0.9 1.7 0.00 0.00 0.00 67 1010.6
20260509171650 83 250 0.0 0.9 0.00 0.00 0.00 72 1010.6
20260509171150 83 261 0.9 1.7 0.00 0.00 0.00 72 1010.6
20260509170649 82 274 1.7 2.6 0.00 0.00 0.00 73 1010.7
20260509170149 82 226 0.0 0.0 0.00 0.00 0.00 72 1010.7
20260509165649 82 75 0.9 1.7 0.00 0.00 0.00 73 1010.8
20260509165149 82 322 0.9 1.7 0.00 0.00 0.00 76 1010.9
20260509164649 82 101 2.6 2.6 0.00 0.00 0.00 74 1010.7
20260509164149 81 61 0.0 0.0 0.00 0.00 0.00 79 1010.7
20260509163649 80 351 0.0 0.9 0.00 0.00 0.00 83 1010.7
20260509163149 80 116 0.9 1.7 0.00 0.00 0.00 83 1010.8
20260509162649 80 82 0.9 1.7 0.00 0.00 0.00 82 1010.9
20260509162149 80 0 0.0 0.0 0.00 0.00 0.00 83 1010.8
20260509161650 80 102 0.9 2.6 0.00 0.00 0.00 83 1010.7
20260509161149 80 304 0.0 0.9 0.00 0.00 0.00 85 1010.6
20260509160649 80 0 0.0 0.0 0.00 0.00 0.00 86 1010.6
20260509160150 79 123 0.0 1.7 0.00 0.00 0.00 86 1010.7
20260509155649 79 0 0.0 0.0 0.00 0.00 0.00 89 1010.7
20260509155150 79 0 0.0 0.0 0.00 0.00 0.00 89 1010.6
20260509154649 79 0 0.0 0.0 0.00 0.00 0.00 89 1010.6
20260509154149 79 283 0.0 0.0 0.00 0.00 0.00 89 1010.4
20260509153649 78 0 0.0 0.0 0.00 0.00 0.00 90 1010.4
20260509153149 78 0 0.0 0.0 0.00 0.00 0.00 90 1010.5
20260509152649 78 353 0.0 0.9 0.00 0.00 0.00 92 1010.4
20260509152149 78 128 0.0 0.9 0.00 0.00 0.00 91 1010.2
20260509151649 78 0 0.0 0.0 0.00 0.00 0.00 93 1010.4
20260509151149 77 301 0.9 0.9 0.00 0.00 0.00 93 1010.6
20260509150649 77 0 0.0 0.0 0.00 0.00 0.00 93 1010.5
20260509150149 77 4 0.0 0.9 0.00 0.00 0.00 93 1010.5
20260509145649 77 22 0.0 0.0 0.00 0.00 0.00 94 1010.4
20260509145149 77 303 0.0 0.0 0.00 0.00 0.00 94 1010.4
20260509144649 76 66 0.9 0.9 0.00 0.00 0.00 94 1010.0
20260509144150 76 94 0.9 1.7 0.00 0.00 0.00 94 1009.9
20260509143649 76 102 1.7 1.7 0.00 0.00 0.00 94 1010.0
20260509143150 76 73 0.9 1.7 0.00 0.00 0.00 95 1009.9
20260509142651 76 122 1.7 1.7 0.00 0.00 0.00 95 1009.7
20260509142151 76 108 0.0 0.9 0.00 0.00 0.00 96 1009.6
20260509141650 76 121 0.0 0.0 0.00 0.00 0.00 96 1009.8
20260509141150 76 105 0.0 0.9 0.00 0.00 0.00 96 1009.7
20260509140650 76 0 0.0 0.0 0.00 0.00 0.00 96 1009.9
20260509140149 76 0 0.0 0.0 0.00 0.00 0.00 96 1009.7
20260509135650 76 0 0.0 0.0 0.00 0.00 0.00 97 1009.6
20260509135150 76 88 0.0 0.0 0.00 0.00 0.00 97 1009.6
20260509134649 76 0 0.0 0.0 0.00 0.00 0.00 97 1009.8
20260509134149 76 0 0.0 0.0 0.00 0.00 0.00 97 1010.0
20260509133649 76 0 0.0 0.0 0.00 0.00 0.00 97 1010.2
20260509133149 76 0 0.0 0.0 0.00 0.00 0.00 97 1010.2
20260509132652 75 0 0.0 0.0 0.00 0.00 0.00 98 1010.4
20260509132149 75 268 0.0 0.0 0.00 0.00 0.00 97 1010.6
20260509131649 75 0 0.0 0.0 0.00 0.00 0.00 98 1010.9
20260509131150 75 0 0.0 0.0 0.00 0.00 0.00 98 1010.9
20260509130649 75 0 0.0 0.0 0.00 0.00 0.00 98 1011.0
20260509130149 75 0 0.0 0.0 0.00 0.00 0.00 98 1011.0
20260509125650 75 282 0.9 0.9 0.00 0.00 0.00 98 1010.9
20260509125150 75 318 0.0 0.9 0.00 0.00 0.00 98 1010.7
20260509124649 75 0 0.0 0.0 0.00 0.00 0.00 98 1010.6
20260509124149 75 0 0.0 0.0 0.00 0.00 0.00 98 1010.7
20260509123652 75 0 0.0 0.0 0.00 0.00 0.00 98 1010.8
20260509123149 75 238 0.0 0.9 0.00 0.00 0.00 98 1010.8
20260509122649 75 271 0.9 0.9 0.00 0.00 0.00 98 1010.7
20260509122151 75 0 0.0 0.0 0.00 0.00 0.00 98 1010.7
20260509121649 75 0 0.0 0.0 0.00 0.00 0.00 98 1010.8
20260509121149 75 0 0.0 0.0 0.00 0.00 0.00 98 1010.8
20260509120650 75 0 0.0 0.0 0.00 0.00 0.00 98 1010.8
20260509120149 75 0 0.0 0.0 0.00 0.00 0.00 98 1011.0
20260509115651 75 0 0.0 0.0 0.00 0.00 0.00 98 1010.8
20260509115149 75 0 0.0 0.0 0.00 0.00 0.00 98 1010.7
20260509114650 75 0 0.0 0.0 0.00 0.00 0.00 97 1010.6
20260509114149 75 0 0.0 0.0 0.00 0.00 0.00 97 1010.3
20260509113649 75 0 0.0 0.0 0.00 0.00 0.00 97 1010.1
20260509113149 75 0 0.0 0.0 0.00 0.00 0.00 97 1009.9
20260509112650 75 0 0.0 0.0 0.00 0.00 0.00 97 1010.0
20260509112149 75 0 0.0 0.0 0.00 0.00 0.00 97 1010.0
20260509111649 75 0 0.0 0.0 0.00 0.00 0.00 97 1010.1
20260509111149 75 0 0.0 0.0 0.00 0.00 0.00 97 1010.0
20260509110650 75 0 0.0 0.0 0.00 0.00 0.00 97 1010.0
20260509110150 75 0 0.0 0.0 0.00 0.00 0.00 97 1010.1
20260509105649 75 0 0.0 0.0 0.00 0.00 0.00 97 1010.2
20260509105149 75 0 0.0 0.0 0.00 0.00 0.00 97 1010.2